Content
SEND FEEDBACK

Daily
Averages
Monthly
Summary
United States of America

MCNARY, OREGON


Home > North America > United States > Oregon
Elevation: 480 feet     Latitude: 45 55N     Longitude: 119 18W

WEATHER
 
SELECT A DAY
Number of Records: 146,241;   Date Range: 1/7/99 - 11/24/14
 
SHARE

PRINT THIS DATA

[ ← Previous Day ]
WEATHER ALMANAC - JANUARY 31, 2013
[ Next Day → ]
[ °C ]   °F
Weather ElementAverageHighLow
Temperature49.1 °F55.9 °F (12:53 pm)43 °F (10:53 pm)
Dewpoint37.9 °F39.9 °F (1:53 am)36 °F (2:53 pm)
Humidity66.4 %80 % (10:53 pm)51 % (12:53 pm)
Barometer30.29 in30.33 in (8:53 am)30.25 in (3:53 pm)
Wind Speed9 mph17.3 mph (2:53 pm)
Wind Gust21.9 mph (12:53 pm)
Weather ElementAverage
Visibility10 mi
Wind DirectionWSW (236.4 °)

Weather ElementTotal
Precipitation---
Heating Degree Days15.6 (Base 65)
Averaged from 22 records on January 31, 2013
WEATHER CONDITIONS BREAKOUT
WIND DIRECTION BREAKOUT
WEATHER BY HOUR - JANUARY 31, 2013
[ °C ]   °F
Local TimeTemperatureDewpointHumidityBarometerVisibilityWind DirectionWind SpeedGust SpeedPrecipitationEventsConditions
1:53 AM48.0 °F39.9 °F74 %30.31 in10.0 miSW (230°)9.2 mphOvercast
2:53 AM48.0 °F39.9 °F74 %30.31 in10.0 miWSW (250°)8.1 mphOvercast
3:53 AM48.0 °F39.0 °F71 %30.31 in10.0 miWSW (240°)4.6 mphOvercast
4:53 AM48.0 °F39.9 °F74 %30.31 in10.0 miSW (220°)8.1 mphOvercast
5:53 AM46.9 °F39.0 °F74 %30.31 in10.0 miSW (230°)5.8 mphOvercast
6:53 AM46.0 °F37.9 °F73 %30.31 in10.0 miSW (220°)6.9 mphOvercast
7:53 AM48.0 °F37.9 °F68 %30.32 in10.0 miWSW (240°)4.6 mphOvercast
8:53 AM48.0 °F37.9 °F68 %30.33 in10.0 miSW (220°)6.9 mphScattered Clouds
9:53 AM50.0 °F37.9 °F63 %30.33 in10.0 miWSW (240°)8.1 mphMostly Cloudy
10:53 AM53.1 °F37.9 °F57 %30.32 in10.0 miWSW (250°)16.1 mphClear
11:53 AM54.0 °F37.9 °F55 %30.30 in10.0 miWest (260°)9.2 mphClear
12:53 PM55.9 °F37.9 °F51 %30.28 in10.0 miWest (260°)12.7 mph21.9 mphClear
1:53 PM55.9 °F37.9 °F51 %30.27 in10.0 miWSW (250°)15.0 mph21.9 mphClear
2:53 PM54.0 °F36.0 °F51 %30.27 in10.0 miWest (260°)17.3 mphClear
3:53 PM53.1 °F37.0 °F55 %30.25 in10.0 miWest (270°)9.2 mphOvercast
4:53 PM50.0 °F37.0 °F61 %30.26 in10.0 miWest (280°)4.6 mphPartly Cloudy
5:53 PM48.0 °F37.9 °F68 %30.26 in10.0 miSouth (180°)5.8 mphOvercast
6:53 PM46.9 °F37.9 °F71 %30.26 in10.0 miSouth (190°)6.9 mphOvercast
7:53 PM46.9 °F37.9 °F71 %30.26 in10.0 miSW (230°)10.4 mphOvercast
8:53 PM45.0 °F37.0 °F74 %30.26 in10.0 miSW (220°)10.4 mphClear
10:53 PM43.0 °F37.0 °F80 %30.27 in10.0 miSW (230°)9.2 mphClear
11:53 PM43.0 °F36.0 °F76 %30.27 in10.0 miSW (230°)9.2 mphClear
Hourly data recorded from KHRI, located miles away from McNary, Oregon







STORIES FROM OUR PARTNERS